| time (UTC) | temp F | wind direction | speed knots | gust knots | rain 1hr in | rain 24hr in | rain mn in | humidity % | barometer mb |
| 20260505102212 | 58 | 266 | 1.7 | 2.6 | 0.00 | 0.04 | 0.04 | 66 | 1011.4 |
| 20260505101711 | 58 | 213 | 4.3 | 4.3 | 0.00 | 0.04 | 0.04 | 66 | 1011.5 |
| 20260505101206 | 58 | 233 | 5.2 | 8.7 | 0.00 | 0.04 | 0.04 | 65 | 1011.1 |
| 20260505100703 | 58 | 231 | 2.6 | 4.3 | 0.00 | 0.04 | 0.04 | 66 | 1011.5 |
| 20260505100200 | 58 | 224 | 2.6 | 4.3 | 0.00 | 0.04 | 0.04 | 65 | 1011.1 |
| 20260505095655 | 58 | 210 | 6.1 | 7.0 | 0.00 | 0.04 | 0.04 | 66 | 1011.1 |
| 20260505095154 | 59 | 261 | 5.2 | 6.1 | 0.00 | 0.04 | 0.04 | 65 | 1010.9 |
| 20260505094649 | 59 | 281 | 1.7 | 2.6 | 0.00 | 0.04 | 0.04 | 65 | 1010.9 |
| 20260505094146 | 58 | 219 | 3.5 | 7.0 | 0.00 | 0.04 | 0.04 | 66 | 1011.1 |
| 20260505093642 | 59 | 323 | 1.7 | 1.7 | 0.00 | 0.04 | 0.04 | 65 | 1010.8 |
| 20260505093140 | 59 | 1 | 2.6 | 4.3 | 0.00 | 0.04 | 0.04 | 65 | 1010.9 |
| 20260505092636 | 58 | 323 | 1.7 | 2.6 | 0.00 | 0.04 | 0.04 | 66 | 1010.8 |
| 20260505092135 | 58 | 215 | 1.7 | 2.6 | 0.00 | 0.04 | 0.04 | 65 | 1010.7 |
| 20260505091632 | 59 | 208 | 3.5 | 5.2 | 0.00 | 0.04 | 0.04 | 65 | 1010.7 |
| 20260505091130 | 59 | 279 | 3.5 | 6.1 | 0.00 | 0.04 | 0.04 | 64 | 1010.8 |
| 20260505090627 | 59 | 226 | 2.6 | 5.2 | 0.00 | 0.04 | 0.04 | 65 | 1010.8 |
| 20260505090125 | 59 | 251 | 2.6 | 4.3 | 0.00 | 0.04 | 0.04 | 64 | 1010.9 |
| 20260505085622 | 59 | 200 | 7.0 | 8.7 | 0.00 | 0.04 | 0.04 | 64 | 1010.8 |
| 20260505085121 | 59 | 284 | 2.6 | 4.3 | 0.00 | 0.04 | 0.04 | 64 | 1010.8 |
| 20260505084618 | 59 | 12 | 2.6 | 4.3 | 0.00 | 0.04 | 0.04 | 66 | 1010.7 |
| 20260505084116 | 58 | 241 | 5.2 | 7.8 | 0.00 | 0.04 | 0.04 | 65 | 1010.7 |
| 20260505083613 | 58 | 286 | 3.5 | 5.2 | 0.00 | 0.04 | 0.04 | 67 | 1010.6 |
| 20260505083110 | 58 | 248 | 1.7 | 2.6 | 0.00 | 0.04 | 0.04 | 67 | 1010.7 |
| 20260505082605 | 58 | 279 | 2.6 | 2.6 | 0.00 | 0.04 | 0.04 | 67 | 1010.6 |
| 20260505082103 | 58 | 195 | 1.7 | 1.7 | 0.00 | 0.04 | 0.04 | 68 | 1010.6 |
| 20260505081559 | 58 | 191 | 4.3 | 5.2 | 0.00 | 0.04 | 0.04 | 67 | 1010.4 |
| 20260505081056 | 58 | 255 | 0.0 | 0.0 | 0.00 | 0.04 | 0.04 | 68 | 1010.4 |
| 20260505080552 | 56 | 290 | 1.7 | 1.7 | 0.00 | 0.04 | 0.04 | 73 | 1010.2 |
| 20260505080049 | 55 | 28 | 1.7 | 2.6 | 0.00 | 0.04 | 0.04 | 78 | 1010.7 |
| 20260505075545 | 56 | 343 | 1.7 | 1.7 | 0.07 | 0.04 | 0.04 | 76 | 1010.7 |
| 20260505075042 | 58 | 331 | 1.7 | 2.6 | 0.07 | 0.04 | 0.04 | 71 | 1010.8 |
| 20260505074539 | 59 | 318 | 1.7 | 1.7 | 0.00 | 0.03 | 0.03 | 66 | 1010.7 |
| 20260505074036 | 58 | 268 | 2.6 | 2.6 | 0.00 | 0.03 | 0.03 | 66 | 1010.6 |
| 20260505073533 | 58 | 320 | 2.6 | 2.6 | 0.00 | 0.03 | 0.03 | 66 | 1010.4 |
| 20260505073032 | 58 | 302 | 1.7 | 1.7 | 0.00 | 0.03 | 0.03 | 66 | 1010.4 |
| 20260505072527 | 58 | 311 | 1.7 | 2.6 | 0.00 | 0.03 | 0.03 | 66 | 1010.6 |
| 20260505072024 | 58 | 60 | 1.7 | 2.6 | 0.00 | 0.03 | 0.03 | 67 | 1010.3 |
| 20260505071519 | 57 | 288 | 3.5 | 5.2 | 0.00 | 0.03 | 0.03 | 66 | 1010.0 |
| 20260505071018 | 57 | 241 | 2.6 | 4.3 | 0.00 | 0.03 | 0.03 | 67 | 1010.1 |
| 20260505070515 | 57 | 240 | 1.7 | 1.7 | 0.00 | 0.03 | 0.03 | 69 | 1010.0 |
| 20260505070010 | 57 | 300 | 0.9 | 0.9 | 0.00 | 0.03 | 0.03 | 69 | 1010.0 |
| 20260505065507 | 56 | 269 | 1.7 | 1.7 | 0.00 | 0.03 | 0.03 | 70 | 1010.2 |
| 20260505065003 | 56 | 183 | 0.9 | 2.6 | 0.00 | 0.03 | 0.03 | 72 | 1010.0 |
| 20260505064500 | 56 | 310 | 2.6 | 2.6 | 0.00 | 0.03 | 0.03 | 72 | 1010.1 |
| 20260505063959 | 56 | 223 | 2.6 | 2.6 | 0.00 | 0.03 | 0.03 | 74 | 1010.1 |
| 20260505063455 | 55 | 228 | 2.6 | 2.6 | 0.00 | 0.03 | 0.03 | 77 | 1010.0 |
| 20260505062951 | 52 | 281 | 1.7 | 1.7 | 0.00 | 0.03 | 0.03 | 87 | 1010.1 |
| 20260505062448 | 52 | 13 | 0.0 | 0.0 | 0.00 | 0.03 | 0.03 | 91 | 1010.3 |
| 20260505061945 | 52 | 13 | 0.0 | 0.0 | 0.00 | 0.03 | 0.03 | 91 | 1010.4 |
| 20260505061443 | 52 | 13 | 0.0 | 0.0 | 0.00 | 0.03 | 0.03 | 90 | 1010.4 |
| 20260505060940 | 53 | 13 | 0.0 | 0.9 | 0.00 | 0.03 | 0.03 | 89 | 1010.6 |
| 20260505060437 | 54 | 10 | 0.9 | 0.9 | 0.17 | 0.03 | 0.03 | 86 | 1010.6 |
| 20260505055934 | 56 | 13 | 0.0 | 0.9 | 0.17 | 0.03 | 0.03 | 79 | 1010.7 |
| 20260505055430 | 58 | 293 | 1.7 | 1.7 | 0.00 | 0.00 | 0.00 | 65 | 1010.6 |
| 20260505054927 | 58 | 207 | 0.9 | 1.7 | 0.00 | 0.00 | 0.00 | 65 | 1010.4 |
| 20260505054424 | 58 | 194 | 3.5 | 4.3 | 0.00 | 0.00 | 0.00 | 65 | 1010.4 |
| 20260505053922 | 58 | 197 | 5.2 | 6.1 | 0.00 | 0.00 | 0.00 | 66 | 1010.4 |
| 20260505053419 | 58 | 322 | 2.6 | 2.6 | 0.00 | 0.00 | 0.00 | 66 | 1010.7 |
| 20260505052916 | 58 | 243 | 6.1 | 7.0 | 0.00 | 0.00 | 0.00 | 66 | 1010.7 |
| 20260505052412 | 58 | 222 | 2.6 | 2.6 | 0.00 | 0.00 | 0.00 | 67 | 1010.7 |
| 20260505051910 | 57 | 213 | 3.5 | 6.1 | 0.00 | 0.00 | 0.00 | 68 | 1010.6 |
| 20260505051407 | 58 | 222 | 4.3 | 5.2 | 0.00 | 0.00 | 0.00 | 67 | 1010.7 |
| 20260505050905 | 58 | 226 | 2.6 | 2.6 | 0.00 | 0.00 | 0.00 | 66 | 1010.4 |
| 20260505050403 | 58 | 217 | 1.7 | 1.7 | 0.00 | 0.00 | 0.00 | 66 | 1010.8 |
| 20260505041330 | 58 | 219 | 2.6 | 2.6 | 0.00 | 0.00 | 0.00 | 67 | 1010.6 |
| 20260505040827 | 58 | 244 | 1.7 | 1.7 | 0.00 | 0.00 | 0.00 | 67 | 1010.4 |
| 20260505040325 | 58 | 227 | 4.3 | 5.2 | 0.00 | 0.00 | 0.00 | 67 | 1010.4 |
| 20260505035822 | 59 | 215 | 4.3 | 5.2 | 0.00 | 0.00 | 0.00 | 67 | 1010.4 |
| 20260505035317 | 59 | 230 | 5.2 | 7.0 | 0.00 | 0.00 | 0.00 | 66 | 1010.4 |
| 20260505034815 | 59 | 202 | 2.6 | 2.6 | 0.00 | 0.00 | 0.00 | 67 | 1010.7 |
| 20260505034311 | 58 | 210 | 2.6 | 2.6 | 0.00 | 0.00 | 0.00 | 67 | 1010.6 |
| 20260505033808 | 58 | 213 | 2.6 | 4.3 | 0.00 | 0.00 | 0.00 | 67 | 1010.4 |
| 20260505033305 | 58 | 215 | 4.3 | 5.2 | 0.00 | 0.00 | 0.00 | 67 | 1010.6 |
| 20260505032804 | 58 | 301 | 1.7 | 1.7 | 0.00 | 0.00 | 0.00 | 68 | 1010.6 |
| 20260505032259 | 58 | 223 | 3.5 | 4.3 | 0.00 | 0.00 | 0.00 | 68 | 1010.6 |
| 20260505031757 | 58 | 207 | 3.5 | 4.3 | 0.00 | 0.00 | 0.00 | 69 | 1010.8 |
| 20260505031253 | 58 | 215 | 3.5 | 4.3 | 0.00 | 0.00 | 0.00 | 68 | 1010.7 |
| 20260505030750 | 58 | 223 | 3.5 | 4.3 | 0.00 | 0.00 | 0.00 | 68 | 1010.7 |
| 20260505030246 | 57 | 239 | 1.7 | 1.7 | 0.00 | 0.00 | 0.00 | 69 | 1011.0 |
| 20260505025742 | 58 | 212 | 0.9 | 0.9 | 0.00 | 0.00 | 0.00 | 69 | 1011.0 |
| 20260505025240 | 57 | 223 | 0.9 | 1.7 | 0.00 | 0.00 | 0.00 | 69 | 1011.0 |
| 20260505024738 | 57 | 247 | 2.6 | 2.6 | 0.00 | 0.00 | 0.00 | 69 | 1010.8 |
| 20260505024235 | 58 | 238 | 2.6 | 2.6 | 0.00 | 0.00 | 0.00 | 68 | 1010.9 |
| 20260505023732 | 58 | 219 | 0.9 | 1.7 | 0.00 | 0.00 | 0.00 | 68 | 1010.8 |
| 20260505023230 | 58 | 221 | 1.7 | 2.6 | 0.00 | 0.00 | 0.00 | 68 | 1010.9 |
| 20260505022727 | 59 | 219 | 2.6 | 2.6 | 0.00 | 0.00 | 0.00 | 67 | 1010.7 |
| 20260505022224 | 59 | 228 | 2.6 | 2.6 | 0.00 | 0.00 | 0.00 | 67 | 1010.8 |
| 20260505021720 | 59 | 227 | 0.9 | 1.7 | 0.00 | 0.00 | 0.00 | 66 | 1010.8 |
| 20260505021218 | 59 | 278 | 0.9 | 0.9 | 0.00 | 0.00 | 0.00 | 67 | 1010.9 |
| 20260505020713 | 59 | 205 | 0.9 | 1.7 | 0.00 | 0.00 | 0.00 | 66 | 1011.0 |
| 20260505020208 | 59 | 274 | 3.5 | 5.2 | 0.00 | 0.00 | 0.00 | 65 | 1011.0 |
| 20260505015706 | 60 | 264 | 2.6 | 4.3 | 0.00 | 0.00 | 0.00 | 65 | 1011.0 |
| 20260505015203 | 60 | 217 | 2.6 | 4.3 | 0.00 | 0.00 | 0.00 | 64 | 1011.1 |
| 20260505014700 | 59 | 201 | 4.3 | 6.1 | 0.00 | 0.00 | 0.00 | 65 | 1011.0 |
| 20260505014157 | 60 | 303 | 0.9 | 0.9 | 0.00 | 0.00 | 0.00 | 65 | 1010.9 |
| 20260505013654 | 60 | 309 | 2.6 | 2.6 | 0.00 | 0.00 | 0.00 | 64 | 1010.8 |
| 20260505013151 | 60 | 231 | 0.9 | 1.7 | 0.00 | 0.00 | 0.00 | 64 | 1011.0 |
| 20260505012650 | 60 | 74 | 0.0 | 0.9 | 0.00 | 0.00 | 0.00 | 64 | 1010.6 |
| 20260505012146 | 60 | 219 | 3.5 | 4.3 | 0.00 | 0.00 | 0.00 | 63 | 1010.7 |
| 20260505011642 | 60 | 198 | 2.6 | 2.6 | 0.00 | 0.00 | 0.00 | 63 | 1010.6 |
| 20260505011139 | 60 | 238 | 2.6 | 2.6 | 0.00 | 0.00 | 0.00 | 63 | 1010.6 |
| 20260505010639 | 61 | 202 | 3.5 | 5.2 | 0.00 | 0.00 | 0.00 | 63 | 1010.4 |
| 20260505010137 | 61 | 197 | 4.3 | 8.7 | 0.00 | 0.00 | 0.00 | 63 | 1010.7 |
| 20260505005633 | 61 | 341 | 3.5 | 4.3 | 0.00 | 0.00 | 0.00 | 62 | 1010.2 |
| 20260505005130 | 61 | 239 | 0.9 | 1.7 | 0.00 | 0.00 | 0.00 | 63 | 1010.2 |
| 20260505004627 | 60 | 214 | 2.6 | 4.3 | 0.00 | 0.00 | 0.00 | 63 | 1010.3 |
| 20260505004124 | 61 | 214 | 0.9 | 1.7 | 0.00 | 0.00 | 0.00 | 62 | 1010.3 |
| 20260505003621 | 60 | 307 | 2.6 | 2.6 | 0.00 | 0.00 | 0.00 | 63 | 1010.0 |
| 20260505003118 | 61 | 212 | 0.9 | 1.7 | 0.00 | 0.00 | 0.00 | 63 | 1010.3 |
| 20260505002614 | 61 | 236 | 2.6 | 2.6 | 0.00 | 0.00 | 0.00 | 63 | 1010.1 |
| 20260505002113 | 61 | 229 | 2.6 | 2.6 | 0.00 | 0.00 | 0.00 | 62 | 1010.2 |
| 20260505001609 | 61 | 209 | 1.7 | 1.7 | 0.00 | 0.00 | 0.00 | 62 | 1010.2 |
| 20260505001107 | 61 | 288 | 0.9 | 1.7 | 0.00 | 0.00 | 0.00 | 62 | 1010.4 |
| 20260505000604 | 62 | 346 | 0.9 | 0.9 | 0.00 | 0.00 | 0.00 | 61 | 1010.3 |
| 20260504235558 | 62 | 256 | 0.9 | 1.7 | 0.00 | 0.00 | 0.00 | 61 | 1010.2 |
| 20260504235055 | 62 | 222 | 0.9 | 0.9 | 0.00 | 0.00 | 0.00 | 60 | 1010.3 |
| 20260504234551 | 62 | 335 | 0.0 | 0.9 | 0.00 | 0.00 | 0.00 | 60 | 1010.1 |
| 20260504234049 | 62 | 245 | 2.6 | 2.6 | 0.00 | 0.00 | 0.00 | 59 | 1010.0 |
| 20260504233544 | 62 | 201 | 5.2 | 7.0 | 0.00 | 0.00 | 0.00 | 59 | 1009.9 |
| 20260504233041 | 63 | 271 | 1.7 | 1.7 | 0.00 | 0.00 | 0.00 | 59 | 1009.8 |
| 20260504232538 | 63 | 200 | 2.6 | 2.6 | 0.00 | 0.00 | 0.00 | 58 | 1009.9 |
| 20260504232036 | 63 | 303 | 1.7 | 1.7 | 0.00 | 0.00 | 0.00 | 58 | 1010.0 |
| 20260504231532 | 63 | 310 | 0.0 | 0.9 | 0.00 | 0.00 | 0.00 | 59 | 1010.1 |
| 20260504231028 | 63 | 344 | 1.7 | 1.7 | 0.00 | 0.00 | 0.00 | 58 | 1010.2 |
| 20260504230525 | 63 | 138 | 1.7 | 1.7 | 0.00 | 0.00 | 0.00 | 58 | 1010.1 |
| 20260504230024 | 63 | 322 | 3.5 | 4.3 | 0.00 | 0.00 | 0.00 | 58 | 1010.3 |
| 20260504225520 | 64 | 221 | 3.5 | 5.2 | 0.00 | 0.00 | 0.00 | 57 | 1010.3 |
| 20260504225017 | 64 | 37 | 1.7 | 1.7 | 0.00 | 0.00 | 0.00 | 56 | 1010.3 |
| 20260504224514 | 64 | 299 | 2.6 | 2.6 | 0.00 | 0.00 | 0.00 | 55 | 1010.2 |
| 20260504224011 | 64 | 327 | 3.5 | 4.3 | 0.00 | 0.00 | 0.00 | 55 | 1010.0 |
| 20260504223508 | 64 | 68 | 1.7 | 1.7 | 0.00 | 0.00 | 0.00 | 55 | 1010.0 |
| 20260504223004 | 64 | 245 | 5.2 | 7.0 | 0.00 | 0.00 | 0.00 | 55 | 1009.8 |
| 20260504222501 | 64 | 289 | 3.5 | 5.2 | 0.00 | 0.00 | 0.00 | 55 | 1010.0 |
| 20260504221958 | 64 | 229 | 2.6 | 5.2 | 0.00 | 0.00 | 0.00 | 55 | 1010.3 |
| 20260504221455 | 65 | 258 | 4.3 | 6.1 | 0.00 | 0.00 | 0.00 | 54 | 1009.8 |
| 20260504220952 | 65 | 236 | 4.3 | 7.0 | 0.00 | 0.00 | 0.00 | 54 | 1009.7 |
| 20260504220448 | 65 | 235 | 4.3 | 6.1 | 0.00 | 0.00 | 0.00 | 53 | 1009.9 |
| 20260504215945 | 66 | 274 | 4.3 | 5.2 | 0.00 | 0.00 | 0.00 | 52 | 1010.0 |
| 20260504215442 | 66 | 232 | 2.6 | 2.6 | 0.00 | 0.00 | 0.00 | 51 | 1010.1 |
| 20260504214939 | 66 | 216 | 8.7 | 15.6 | 0.00 | 0.00 | 0.00 | 52 | 1010.0 |
| 20260504214435 | 66 | 276 | 0.9 | 1.7 | 0.00 | 0.00 | 0.00 | 53 | 1009.9 |
| 20260504213932 | 66 | 281 | 2.6 | 4.3 | 0.00 | 0.00 | 0.00 | 52 | 1010.1 |
| 20260504213428 | 67 | 268 | 4.3 | 7.0 | 0.00 | 0.00 | 0.00 | 51 | 1009.9 |
| 20260504212926 | 67 | 346 | 2.6 | 4.3 | 0.00 | 0.00 | 0.00 | 51 | 1010.1 |
| 20260504212421 | 66 | 259 | 1.7 | 1.7 | 0.00 | 0.00 | 0.00 | 54 | 1009.8 |
| 20260504211919 | 65 | 243 | 6.1 | 7.8 | 0.00 | 0.00 | 0.00 | 53 | 1009.9 |
| 20260504211415 | 66 | 256 | 8.7 | 13.0 | 0.00 | 0.00 | 0.00 | 52 | 1009.9 |
| 20260504210913 | 68 | 256 | 5.2 | 7.8 | 0.00 | 0.00 | 0.00 | 50 | 1009.8 |
| 20260504210409 | 66 | 233 | 2.6 | 4.3 | 0.00 | 0.00 | 0.00 | 51 | 1009.9 |
| 20260504205907 | 68 | 281 | 3.5 | 4.3 | 0.00 | 0.00 | 0.00 | 49 | 1009.8 |
| 20260504205404 | 67 | 286 | 5.2 | 6.1 | 0.00 | 0.00 | 0.00 | 48 | 1010.0 |
| 20260504204902 | 68 | 229 | 2.6 | 2.6 | 0.00 | 0.00 | 0.00 | 51 | 1009.7 |
| 20260504204400 | 68 | 252 | 2.6 | 4.3 | 0.00 | 0.00 | 0.00 | 50 | 1009.8 |
| 20260504203900 | 68 | 23 | 1.7 | 1.7 | 0.00 | 0.00 | 0.00 | 51 | 1009.8 |
| 20260504203356 | 68 | 263 | 6.1 | 7.0 | 0.00 | 0.00 | 0.00 | 48 | 1009.8 |
| 20260504202852 | 66 | 282 | 4.3 | 6.1 | 0.00 | 0.00 | 0.00 | 50 | 1009.8 |
| 20260504202349 | 66 | 232 | 12.2 | 18.2 | 0.00 | 0.00 | 0.00 | 51 | 1009.8 |
| 20260504201845 | 67 | 200 | 1.7 | 1.7 | 0.00 | 0.00 | 0.00 | 51 | 1009.9 |
| 20260504201343 | 68 | 190 | 7.8 | 9.6 | 0.00 | 0.00 | 0.00 | 50 | 1009.9 |
| 20260504200840 | 67 | 217 | 9.6 | 12.2 | 0.00 | 0.00 | 0.00 | 51 | 1009.8 |
| 20260504200337 | 66 | 263 | 6.1 | 8.7 | 0.00 | 0.00 | 0.00 | 51 | 1009.6 |
| 20260504195833 | 66 | 227 | 6.1 | 7.8 | 0.00 | 0.00 | 0.00 | 51 | 1009.8 |
| 20260504195329 | 66 | 239 | 6.1 | 7.0 | 0.00 | 0.00 | 0.00 | 53 | 1009.9 |
| 20260504194826 | 68 | 225 | 5.2 | 7.8 | 0.00 | 0.00 | 0.00 | 51 | 1010.0 |
| 20260504194322 | 67 | 274 | 2.6 | 5.2 | 0.00 | 0.00 | 0.00 | 53 | 1010.0 |
| 20260504193818 | 67 | 240 | 5.2 | 6.1 | 0.00 | 0.00 | 0.00 | 52 | 1010.2 |
| 20260504193316 | 67 | 324 | 2.6 | 4.3 | 0.00 | 0.00 | 0.00 | 52 | 1010.0 |
| 20260504192814 | 66 | 195 | 3.5 | 5.2 | 0.00 | 0.00 | 0.00 | 53 | 1010.2 |
| 20260504192312 | 66 | 232 | 5.2 | 7.8 | 0.00 | 0.00 | 0.00 | 54 | 1010.4 |
| 20260504191810 | 67 | 61 | 0.0 | 0.9 | 0.00 | 0.00 | 0.00 | 56 | 1010.1 |
| 20260504191308 | 66 | 243 | 7.8 | 8.7 | 0.00 | 0.00 | 0.00 | 53 | 1010.4 |
| 20260504190803 | 66 | 264 | 5.2 | 6.1 | 0.00 | 0.00 | 0.00 | 53 | 1010.3 |
| 20260504190259 | 64 | 92 | 2.6 | 4.3 | 0.00 | 0.00 | 0.00 | 57 | 1010.3 |
| 20260504185755 | 64 | 258 | 5.2 | 7.8 | 0.00 | 0.00 | 0.00 | 55 | 1010.4 |
| 20260504185253 | 67 | 207 | 3.5 | 5.2 | 0.00 | 0.00 | 0.00 | 53 | 1010.6 |
| 20260504184749 | 65 | 225 | 2.6 | 4.3 | 0.00 | 0.00 | 0.00 | 54 | 1010.4 |
| 20260504184244 | 66 | 216 | 7.0 | 9.6 | 0.00 | 0.00 | 0.00 | 54 | 1010.9 |
| 20260504183740 | 67 | 246 | 2.6 | 4.3 | 0.00 | 0.00 | 0.00 | 54 | 1010.4 |
| 20260504183237 | 66 | 276 | 5.2 | 6.1 | 0.00 | 0.00 | 0.00 | 52 | 1010.3 |
| 20260504182736 | 65 | 211 | 3.5 | 5.2 | 0.00 | 0.00 | 0.00 | 54 | 1010.6 |
| 20260504182233 | 64 | 246 | 8.7 | 11.3 | 0.00 | 0.00 | 0.00 | 53 | 1010.7 |
| 20260504181730 | 65 | 221 | 10.4 | 14.8 | 0.00 | 0.00 | 0.00 | 53 | 1010.9 |
| 20260504181227 | 65 | 255 | 5.2 | 7.0 | 0.00 | 0.00 | 0.00 | 54 | 1010.9 |
| 20260504180726 | 64 | 215 | 9.6 | 12.2 | 0.00 | 0.00 | 0.00 | 54 | 1010.9 |
| 20260504180225 | 64 | 213 | 4.3 | 5.2 | 0.00 | 0.00 | 0.00 | 54 | 1011.0 |
| 20260504175722 | 64 | 180 | 6.1 | 7.8 | 0.00 | 0.00 | 0.00 | 54 | 1010.9 |
| 20260504175218 | 63 | 226 | 5.2 | 7.0 | 0.00 | 0.00 | 0.00 | 55 | 1011.3 |
| 20260504174717 | 62 | 201 | 8.7 | 9.6 | 0.00 | 0.00 | 0.00 | 56 | 1011.3 |
| 20260504174214 | 62 | 247 | 10.4 | 12.2 | 0.00 | 0.00 | 0.00 | 55 | 1011.2 |
| 20260504173710 | 63 | 223 | 7.0 | 11.3 | 0.00 | 0.00 | 0.00 | 55 | 1011.2 |
| 20260504173208 | 63 | 238 | 4.3 | 6.1 | 0.00 | 0.00 | 0.00 | 53 | 1011.1 |
| 20260504172704 | 63 | 195 | 9.6 | 13.0 | 0.00 | 0.00 | 0.00 | 54 | 1011.1 |
| 20260504172200 | 63 | 280 | 7.0 | 7.8 | 0.00 | 0.00 | 0.00 | 53 | 1011.1 |
| 20260504171657 | 63 | 227 | 8.7 | 12.2 | 0.00 | 0.00 | 0.00 | 53 | 1011.4 |
| 20260504171154 | 63 | 289 | 3.5 | 4.3 | 0.00 | 0.00 | 0.00 | 53 | 1011.4 |
| 20260504170650 | 62 | 226 | 4.3 | 7.8 | 0.00 | 0.00 | 0.00 | 53 | 1011.3 |
| 20260504170148 | 62 | 215 | 5.2 | 6.1 | 0.00 | 0.00 | 0.00 | 53 | 1011.2 |
| 20260504151028 | 60 | 289 | 7.0 | 7.8 | 0.00 | 0.00 | 0.00 | 50 | 1012.7 |
| 20260504150525 | 61 | 302 | 4.3 | 5.2 | 0.00 | 0.00 | 0.00 | 48 | 1012.5 |
| 20260504140951 | 59 | 234 | 3.5 | 5.2 | 0.00 | 0.00 | 0.00 | 51 | 1012.4 |
| 20260504140447 | 59 | 325 | 3.5 | 5.2 | 0.00 | 0.00 | 0.00 | 51 | 1012.4 |
| 20260504130412 | 53 | 240 | 7.8 | 9.6 | 0.00 | 0.00 | 0.00 | 58 | 1012.8 |
| 20260504110259 | 45 | 229 | 3.5 | 5.2 | 0.00 | 0.00 | 0.00 | 70 | 1013.2 |